Retour au catalogue

STARLINK-34859

ActifCommunicationsVLEO
NORAD 65348·PAYLOAD·🇺🇸 United States

Lancé Aug 27, 2025 depuis Cape Canaveral Space Force Station

Loading…

Prochains Passages (prochaines 24 heures)

TLE

FraisSource: CelesTrak SupGP

Époque: Sep 15, 2026, 03:44 UTC

1 65348C 25189AB  26258.15604167  .00010394  00000+0  30710-3 0  2582
2 65348  53.1600  44.5406 0001179  91.8927 325.4198 15.34384921    13

Suivez STARLINK-34859 en temps réel avec AllMySat

Download on the App Store